FW0288 Weather Reports


Display with metric or nautical units.
time (UTC)temp
F
wind
direction
speed
MPH
gust
MPH
rain 1hr
in
rain 24hr
in
rain mn
in
humidity
%
barometer
mb
20220814103028 66 257 2.0 8.0 0.00 0.03 0.00 72 1006.6
20220814101525 67 244 3.0 6.0 0.00 0.03 0.00 68 1006.6
20220814100039 67 289 2.0 4.0 0.00 0.03 0.00 64 1006.7
20220814094528 68 297 2.0 3.0 0.00 0.03 0.00 62 1006.6
20220814093020 68 297 1.0 2.0 0.00 0.03 0.00 60 1006.4
20220814091518 69 257 1.0 2.0 0.00 0.03 0.00 60 1006.3
20220814090015 70 257 0.0 3.0 0.00 0.03 0.00 56 1006.2
20220814084530 70 206 1.0 3.0 0.00 0.03 0.00 55 1006.1
20220814083036 70 206 1.0 3.0 0.00 0.03 0.00 56 1006.2
20220814081510 70 204 0.0 5.0 0.00 0.03 0.00 54 1006.3
20220814080023 70 221 0.0 6.0 0.00 0.03 0.00 55 1006.4
20220814074507 71 175 0.0 3.0 0.00 0.03 0.00 55 1006.4
20220814073006 71 174 0.0 4.0 0.00 0.03 0.00 54 1006.5
20220814071506 71 186 3.0 6.0 0.00 0.03 0.00 54 1006.7
20220814070008 71 192 0.0 3.0 0.00 0.03 0.00 57 1006.9
20220814064501 71 194 0.0 5.0 0.00 0.03 0.00 56 1006.9
20220814063116 71 182 1.0 4.0 0.00 0.03 0.00 55 1006.9
20220814061606 71 223 0.0 4.0 0.00 0.03 0.00 56 1006.8
20220814060056 71 256 0.0 5.0 0.00 0.03 0.00 57 1006.7
20220814054556 71 223 0.0 2.0 0.00 0.03 0.03 60 1006.9
20220814053055 71 257 0.0 2.0 0.00 0.03 0.03 59 1007.2
20220814051615 71 259 0.0 3.0 0.00 0.03 0.03 58 1007.3
20220814050122 72 240 0.0 8.0 0.00 0.03 0.03 56 1007.6
20220814044603 72 241 6.0 10.0 0.00 0.03 0.03 55 1007.7
20220814043102 71 281 4.0 10.0 0.00 0.03 0.03 57 1007.6
20220814041557 72 281 3.0 9.0 0.00 0.03 0.03 59 1007.8
20220814040053 72 270 7.0 12.0 0.00 0.03 0.03 59 1007.9
20220814034611 72 265 3.0 10.0 0.00 0.03 0.03 58 1007.8
20220814033058 71 273 6.0 11.0 0.01 0.03 0.03 63 1008.0
20220814031607 69 192 3.0 7.0 0.03 0.03 0.03 74 1007.9
20220814030051 69 150 1.0 5.0 0.03 0.03 0.03 75 1007.9
20220814024549 70 86 2.0 4.0 0.03 0.03 0.03 67 1007.6
20220814023049 71 165 3.0 10.0 0.02 0.02 0.02 61 1007.3
20220814021547 76 205 1.0 3.0 0.00 0.00 0.00 50 1007.1
20220814020056 78 214 1.0 8.0 0.00 0.00 0.00 43 1006.7
20220814014547 78 226 4.0 11.0 0.00 0.00 0.00 41 1006.0
20220814013051 78 286 5.0 9.0 0.00 0.00 0.00 41 1005.6
20220814011549 79 277 4.0 14.0 0.00 0.00 0.00 41 1005.5
20220814010042 80 276 7.0 17.0 0.00 0.00 0.00 39 1005.5
20220814004556 80 275 10.0 17.0 0.00 0.00 0.00 37 1005.5
20220814003054 80 244 8.0 17.0 0.00 0.00 0.00 39 1005.5
20220814001556 81 273 10.0 16.0 0.00 0.00 0.00 36 1005.2
20220814000049 83 266 10.0 22.0 0.00 0.00 0.00 34 1005.1
20220813234608 83 285 6.0 10.0 0.00 0.00 0.00 43 1005.1
20220813233037 83 279 3.0 9.0 0.00 0.00 0.00 42 1005.0
20220813231539 84 299 2.0 9.0 0.00 0.00 0.00 41 1004.9
20220813230103 85 254 6.0 10.0 0.00 0.00 0.00 40 1004.9
20220813224542 85 263 3.0 10.0 0.00 0.00 0.00 41 1005.0
20220813223044 86 283 5.0 12.0 0.00 0.00 0.00 40 1005.0
20220813221540 85 96 1.0 9.0 0.00 0.00 0.00 36 1004.8
20220813220031 86 71 2.0 8.0 0.00 0.00 0.00 35 1005.1
20220813214531 86 69 0.0 7.0 0.00 0.00 0.00 37 1005.3
20220813213041 86 118 4.0 8.0 0.00 0.00 0.00 36 1005.5
20220813211537 86 74 2.0 9.0 0.00 0.00 0.00 39 1005.7
20220813210024 85 63 5.0 9.0 0.00 0.00 0.00 42 1005.8
20220813204535 83 86 0.0 10.0 0.00 0.00 0.00 41 1006.3
20220813203043 83 88 6.0 10.0 0.00 0.00 0.00 44 1006.4
20220813201525 83 80 3.0 13.0 0.00 0.00 0.00 44 1006.6
20220813200033 82 12 3.0 13.0 0.00 0.00 0.00 46 1006.6
20220813194535 82 41 3.0 10.0 0.00 0.00 0.00 45 1007.0
20220813193023 84 308 1.0 9.0 0.00 0.00 0.00 44 1007.2
20220813191517 84 260 3.0 9.0 0.00 0.00 0.00 43 1007.5
20220813190020 82 32 3.0 9.0 0.00 0.00 0.00 48 1007.5
20220813184524 81 48 5.0 9.0 0.00 0.00 0.00 48 1007.7
20220813183017 84 346 1.0 9.0 0.00 0.00 0.00 43 1007.9
20220813181525 81 348 4.0 10.0 0.00 0.00 0.00 48 1008.0
20220813180012 79 24 3.0 9.0 0.00 0.00 0.00 49 1008.2
20220813174518 79 74 1.0 9.0 0.00 0.00 0.00 47 1008.4
20220813173001 80 355 2.0 9.0 0.00 0.00 0.00 49 1008.4
20220813171602 77 72 1.0 7.0 0.00 0.00 0.00 51 1008.7
20220813170053 77 355 1.0 6.0 0.00 0.00 0.00 53 1008.8
20220813164605 76 28 4.0 7.0 0.00 0.00 0.00 56 1009.0
20220813163045 77 82 3.0 9.0 0.00 0.00 0.00 52 1009.1
20220813161553 76 69 5.0 6.0 0.00 0.00 0.00 55 1009.1
20220813160036 75 84 1.0 4.0 0.00 0.00 0.00 55 1009.0
20220813154534 74 47 4.0 7.0 0.00 0.00 0.00 57 1009.3
20220813153027 73 49 3.0 6.0 0.00 0.00 0.00 57 1009.3
20220813151548 73 73 3.0 5.0 0.00 0.00 0.00 57 1009.3
20220813150021 73 88 0.0 7.0 0.00 0.00 0.00 58 1009.5
20220813144514 73 55 2.0 5.0 0.00 0.00 0.00 57 1009.7
20220813143016 72 93 1.0 3.0 0.00 0.00 0.00 59 1009.9
20220813141505 74 202 0.0 2.0 0.00 0.00 0.00 58 1010.0
20220813140100 72 220 0.0 3.0 0.00 0.00 0.00 60 1009.9
20220813134556 70 281 0.0 2.0 0.00 0.00 0.00 62 1010.0
20220813133051 69 286 0.0 1.0 0.00 0.00 0.00 69 1010.1
20220813131553 66 286 0.0 1.0 0.00 0.00 0.00 72 1010.3
20220813130043 65 286 0.0 0.0 0.00 0.00 0.00 74 1010.3
20220813124538 64 286 0.0 2.0 0.00 0.00 0.00 74 1010.4
20220813123048 64 288 0.0 0.0 0.00 0.00 0.00 74 1010.4
20220813121536 64 288 0.0 1.0 0.00 0.00 0.00 73 1010.4
20220813120029 65 288 0.0 2.0 0.00 0.00 0.00 72 1010.3
20220813114528 65 290 0.0 0.0 0.00 0.00 0.00 71 1010.2
20220813113028 65 290 0.0 0.0 0.00 0.00 0.00 71 1010.3
20220813111554 66 290 0.0 0.0 0.00 0.00 0.00 70 1010.3
20220813110026 66 290 0.0 4.0 0.00 0.00 0.00 69 1010.3
20220813104523 66 287 0.0 4.0 0.00 0.00 0.00 68 1010.1